Regional Weather Roundup
Issued by NWS

Home | Current Version | Previous Version | Graphics & Text | Print | Product List | Glossary On
Versions: 1 2 3 4 5 6 7 8 9 10 11 12 13 14 15 16 17 18 19 20 21 22 23 24 25 26 27 28 29 30 31 32 33 34 35 36 37 38 39 40 41 42 43 44 45 46 47 48 49 50
732
ASUS43 KBIS 140002
RWRND

NORTH DAKOTA REGIONAL WEATHER ROUNDUP
NATIONAL WEATHER SERVICE BISMARCK ND
600 PM CST SAT FEB 13 2016

NOTE: "FAIR" INDICATES FEW OR NO CLOUDS BELOW 12,000 FEET WITH NO
SIGNIFICANT WEATHER AND/OR OBSTRUCTIONS TO VISIBILITY.


NDZ001>003-009>011-017-140100-
NORTHWEST NORTH DAKOTA

CITY           SKY/WX    TMP DP  RH WIND       PRES   REMARKS
WILLISTON      CLOUDY    22  18  85 S6        29.79S WCI  14
6HR MIN TEMP:  20; 6HR MAX TEMP:  22; 6HR PCP:  0.32;

MINOT          LGT SNOW  18  10  71 SE12      29.89S VSB 3/4 WCI   5
MINOT AFB      CLOUDY    17  12  80 SE16      29.88F WCI   1
$$

NDZ018>021-031>035-040>046-140100-
SOUTHWEST NORTH DAKOTA

CITY           SKY/WX    TMP DP  RH WIND       PRES   REMARKS
BISMARCK       SNOW      17  12  80 SE14      29.94F VSB 1/2 WCI   3
6HR MIN TEMP:  14; 6HR MAX TEMP:  19; 6HR PCP:  0.06;

DICKINSON      LGT SNOW  21  18  88 S12       29.79F FOG     WCI   9
GARRISON         N/A     14  11  87 S15       29.87F WCI  -1
6HR MIN TEMP:  11; 6HR MAX TEMP:  15; 6HR PCP:  0.05;

HETTINGER ARPT LGT SNOW  22  20  92 CALM      29.83F FOG
$$

NDZ004>008-012>016-024-026-027-054-140100-
NORTHEAST NORTH DAKOTA

CITY           SKY/WX    TMP DP  RH WIND       PRES   REMARKS
GRAND FORKS    CLOUDY    12   0  58 SE20      30.20F WCI  -6
GRND FRKS AFB  CLOUDY    11   2  64 SE14      30.16F WCI  -4
DEVILS LAKE    FLURRIES   8   2  76 SE24      30.04F WCI -13
$$

NDZ022-023-025-028>030-036>039-047>053-140100-
SOUTHEAST NORTH DAKOTA

CITY           SKY/WX    TMP DP  RH WIND       PRES   REMARKS
FARGO          CLOUDY    14   1  56 SE20G28   30.20F WCI  -3
6HR MIN TEMP:   6; 6HR MAX TEMP:  14;

JAMESTOWN      CLOUDY     9   1  70 SE17G25   30.05F WCI  -9
$$





USA.gov is the U.S. government's official web portal to all federal, state and local government web resources and services.